Hailey, ID

8:24 PM MDT on July 22, 2017 (GMT -0600)
Friedman Memorial

Weather History for KSUN - August, 2014

Change the Weather History Date:

Saturday, August 23, 2014

  Actual Average Record
Temperature  
Mean Temperature 52 °F -  
Max Temperature 60 °F 79 °F 93 °F (1999)
Min Temperature 44 °F 49 °F 41 °F (2010)
Degree Days  
Heating Degree Days 13    
Growing Degree Days 2 (Base 50)    
Moisture  
Dew Point 46 °F    
Average Humidity 83    
Maximum Humidity 94    
Minimum Humidity 67    
Precipitation  
Precipitation 0.00 in - - ()
Sea Level Pressure  
Sea Level Pressure 30.08 in    
Wind  
Wind Speed 6 mph (NW)    
Max Wind Speed 10 mph    
Max Gust Speed -    
Visibility 10 miles    
Events Thunderstorm    
Averages and records for this station are not official NWS values.
T = Trace of Precipitation, MM = Missing Value Source: NWS Daily Summary

Daily Weather History Graph

Daily Weather History Graph

Search for Another Location

Airport or City:

Trip Planner

Search our weather history database for the weather conditions in past years. The results will help you decide how hot, cold, wet, or windy it might be!

Date:

Astronomy

Aug. 23, 2014 Rise Set
Actual Time 6:51 AM MDT 8:27 PM MDT
Civil Twilight 6:20 AM MDT 8:57 PM MDT
Nautical Twilight 5:44 AM MDT 9:34 PM MDT
Astronomical Twilight 5:04 AM MDT 10:13 PM MDT
Moon 5:09 AM MDT 7:14 PM MDT
Length of Visible Light 14h 36m
Length of Day
13h 36m
Waning Crescent, 3% of the Moon is Illuminated
Aug 23
Waning Crescent
Aug 25
New
Sep 2
First Quarter
Sep 8
Full
Sep 15
Last Quarter

Hourly Weather History & Observations

Time (MDT) Temp. Windchill Dew Point Humidity Pressure Visibility Wind Dir Wind Speed Gust Speed Precip Events Conditions
12:15 AM 48.2 °F - 44.6 °F 87% 30.07 in 10.0 mi NW 6.9 mph - N/A   Clear
12:35 AM 50.0 °F - 42.8 °F 76% 30.07 in 10.0 mi NNW 6.9 mph - N/A   Clear
12:55 AM 50.0 °F - 42.8 °F 76% 30.08 in 10.0 mi NNW 5.8 mph - N/A   Clear
1:15 AM 50.0 °F - 42.8 °F 76% 30.08 in 10.0 mi North 4.6 mph - N/A   Clear
1:55 AM 46.4 °F 43.5 °F 42.8 °F 87% 30.07 in 10.0 mi WNW 5.8 mph - N/A   Scattered Clouds
2:15 AM 48.2 °F - 42.8 °F 82% 30.07 in 10.0 mi NW 5.8 mph - N/A   Mostly Cloudy
2:35 AM 46.4 °F 43.5 °F 42.8 °F 87% 30.07 in 10.0 mi NW 5.8 mph - N/A   Scattered Clouds
2:55 AM 46.4 °F 45.2 °F 42.8 °F 87% 30.07 in 10.0 mi NNW 3.5 mph - N/A   Scattered Clouds
3:15 AM 48.2 °F - 42.8 °F 82% 30.07 in 10.0 mi NNW 6.9 mph - N/A   Scattered Clouds
3:35 AM 46.4 °F 43.5 °F 42.8 °F 87% 30.07 in 10.0 mi NW 5.8 mph - N/A   Clear
3:55 AM 46.4 °F 42.9 °F 42.8 °F 87% 30.07 in 10.0 mi NW 6.9 mph - N/A   Clear
4:15 AM 46.4 °F 43.5 °F 42.8 °F 87% 30.07 in 10.0 mi NW 5.8 mph - N/A   Clear
4:35 AM 46.4 °F 42.9 °F 42.8 °F 87% 30.07 in 10.0 mi NNW 6.9 mph - N/A   Clear
4:55 AM 46.4 °F 43.5 °F 42.8 °F 87% 30.07 in 10.0 mi NW 5.8 mph - N/A   Clear
5:15 AM 46.4 °F 42.9 °F 42.8 °F 87% 30.07 in 10.0 mi NW 6.9 mph - N/A   Clear
5:35 AM 46.4 °F 44.3 °F 42.8 °F 87% 30.07 in 10.0 mi North 4.6 mph - N/A Thunderstorm Clear
5:55 AM 46.4 °F 44.3 °F 42.8 °F 87% 30.07 in 10.0 mi NW 4.6 mph - N/A   Clear
6:15 AM 44.6 °F 41.4 °F 42.8 °F 93% 30.07 in 10.0 mi NW 5.8 mph - N/A Thunderstorm Clear
6:35 AM 44.6 °F 41.4 °F 42.8 °F 93% 30.08 in 10.0 mi WNW 5.8 mph - N/A   Clear
6:47 AM 44.6 °F 41.4 °F 42.8 °F 93% 30.07 in 10.0 mi WNW 5.8 mph - N/A   Scattered Clouds
7:47 AM 44.6 °F 42.2 °F 42.8 °F 93% 30.08 in 10.0 mi WNW 4.6 mph - N/A   Scattered Clouds
8:47 AM 48.2 °F - 42.8 °F 82% 30.08 in 10.0 mi WNW 6.9 mph - N/A   Scattered Clouds
9:47 AM 51.8 °F - 42.8 °F 71% 30.08 in 10.0 mi Calm Calm - N/A   Scattered Clouds
10:47 AM 53.6 °F - 46.4 °F 77% 30.09 in 10.0 mi ESE 10.4 mph - N/A   Scattered Clouds
11:47 AM 55.4 °F - 46.4 °F 72% 30.10 in 10.0 mi ESE 8.1 mph - N/A   Mostly Cloudy
12:47 PM 57.2 °F - 48.2 °F 72% 30.09 in 10.0 mi SE 8.1 mph - N/A   Mostly Cloudy
2:47 PM 59.0 °F - 51.8 °F 77% 30.09 in 10.0 mi SE 6.9 mph - N/A   Mostly Cloudy
3:55 PM 57.2 °F - 51.8 °F 82% 30.09 in 10.0 mi East 9.2 mph - N/A   Overcast
4:47 PM 59.0 °F - 51.8 °F 77% 30.09 in 10.0 mi SE 6.9 mph - N/A   Mostly Cloudy
5:50 PM 60.8 °F - 50.0 °F 68% 30.07 in 10.0 mi ESE 5.8 mph - N/A   Mostly Cloudy
6:47 PM 60.8 °F - 51.8 °F 72% 30.08 in 10.0 mi SE 5.8 mph - N/A   Mostly Cloudy
7:50 PM 59.0 °F - 48.2 °F 67% 30.09 in 10.0 mi Calm Calm - N/A   Mostly Cloudy
9:50 PM 55.4 °F - 51.8 °F 88% 30.12 in 10.0 mi West 4.6 mph - N/A   Mostly Cloudy
10:47 PM 55.4 °F - 50.0 °F 82% 30.12 in 10.0 mi Calm Calm - N/A   Overcast
11:15 PM 53.6 °F - 50.0 °F 88% 30.12 in 10.0 mi Calm Calm - N/A   Overcast
11:35 PM 51.8 °F - 50.0 °F 94% 30.12 in 10.0 mi Calm Calm - N/A   Overcast
11:55 PM 51.8 °F - 50.0 °F 94% 30.12 in 10.0 mi Calm Calm - N/A   Mostly Cloudy